When you browse on this site, cookies collect data to enhance your experience and personalize the content and advertising you see.
Visit our Privacy Policy to learn more. By continuing to use the site, you agree to this use of cookies and data.
  • In Austria
  • List of Countries
  • For 7 days
  • Water Temperature
  • Weather Map
  • News
  • Weather Widgets
  • user-avatar
    Login

    Hourly Weather Tasquillo

    Today, 14 December, Saturday

    Time Temperature Precipitation Wind Pressure Humidity
    00:00 +15°C° 0 mm 1 mps 625 mmHg 82%
    01:00 +14°C° 0 mm 1 mps 625 mmHg 82%
    02:00 +14°C° 0 mm 1 mps 624 mmHg 82%
    03:00 +14°C° 0 mm 1 mps 624 mmHg 81%
    04:00 +13°C° 0 mm 1 mps 624 mmHg 81%
    05:00 +13°C° 0 mm 1 mps 624 mmHg 80%
    06:00 +15°C° 0 mm 1 mps 625 mmHg 72%
    07:00 +16°C° 0 mm 1 mps 626 mmHg 64%
    08:00 +19°C° 0 mm 1 mps 627 mmHg 55%
    09:00 +21°C° 0 mm 1 mps 627 mmHg 46%
    10:00 +23°C° 0 mm 1 mps 627 mmHg 36%
    11:00 +24°C° 0 mm 1 mps 627 mmHg 27%
    12:00 +25°C° 0 mm 1 mps 627 mmHg 25%
    13:00 +26°C° 0 mm 1 mps 626 mmHg 23%
    14:00 +26°C° 0 mm 1 mps 626 mmHg 21%
    15:00 +24°C° 0 mm 1 mps 625 mmHg 27%
    16:00 +22°C° 0 mm 1 mps 624 mmHg 33%
    17:00 +21°C° 0 mm 1 mps 624 mmHg 39%
    18:00 +20°C° 0 mm 1 mps 624 mmHg 44%
    19:00 +19°C° 0 mm 1 mps 624 mmHg 49%
    20:00 +16°C° 0 mm 0 mps 624 mmHg 54%
    21:00 +15°C° 0 mm 0 mps 624 mmHg 52%
    22:00 +16°C° 0 mm 1 mps 624 mmHg 51%
    23:00 +16°C° 0 mm 1 mps 624 mmHg 49%

    Tomorrow, 15 December, Sunday

    Time Temperature Precipitation Wind Pressure Humidity
    00:00 +15°C° 0 mm 1 mps 624 mmHg 48%
    01:00 +15°C° 0 mm 1 mps 624 mmHg 46%
    02:00 +15°C° 0 mm 1 mps 623 mmHg 45%
    03:00 +14°C° 0 mm 1 mps 623 mmHg 45%
    04:00 +14°C° 0 mm 1 mps 623 mmHg 45%
    05:00 +14°C° 0 mm 2 mps 623 mmHg 45%
    06:00 +15°C° 0 mm 2 mps 624 mmHg 42%
    07:00 +17°C° 0 mm 2 mps 625 mmHg 39%
    08:00 +19°C° 0 mm 2 mps 626 mmHg 36%
    09:00 +21°C° 0 mm 2 mps 627 mmHg 32%
    10:00 +23°C° 0 mm 2 mps 627 mmHg 28%
    11:00 +25°C° 0 mm 2 mps 627 mmHg 25%
    12:00 +26°C° 0 mm 2 mps 627 mmHg 23%
    13:00 +26°C° 0 mm 2 mps 626 mmHg 21%
    14:00 +27°C° 0 mm 2 mps 625 mmHg 20%
    15:00 +25°C° 0 mm 2 mps 625 mmHg 24%
    16:00 +23°C° 0 mm 2 mps 624 mmHg 28%
    17:00 +22°C° 0 mm 1 mps 623 mmHg 33%
    18:00 +21°C° 0 mm 1 mps 624 mmHg 36%
    19:00 +20°C° 0 mm 1 mps 624 mmHg 39%
    20:00 +17°C° 0 mm 0 mps 625 mmHg 42%
    21:00 +19°C° 0 mm 1 mps 625 mmHg 42%
    22:00 +18°C° 0 mm 1 mps 625 mmHg 43%
    23:00 +18°C° 0 mm 1 mps 625 mmHg 43%

    Day after tomorrow, 16 December, Monday

    Time Temperature Precipitation Wind Pressure Humidity
    00:00 +17°C° 0 mm 2 mps 624 mmHg 46%
    01:00 +16°C° 0 mm 2 mps 624 mmHg 48%
    02:00 +16°C° 0 mm 2 mps 624 mmHg 51%
    03:00 +15°C° 0 mm 2 mps 624 mmHg 53%
    04:00 +15°C° 0 mm 2 mps 623 mmHg 55%
    05:00 +14°C° 0 mm 2 mps 623 mmHg 58%
    06:00 +16°C° 0 mm 2 mps 624 mmHg 54%
    07:00 +17°C° 0 mm 2 mps 625 mmHg 50%
    08:00 +19°C° 0 mm 2 mps 626 mmHg 46%
    09:00 +20°C° 0 mm 2 mps 626 mmHg 42%
    10:00 +23°C° 0 mm 2 mps 626 mmHg 38%
    11:00 +24°C° 0 mm 3 mps 627 mmHg 34%
    12:00 +25°C° 0 mm 3 mps 626 mmHg 31%
    13:00 +26°C° 0 mm 3 mps 626 mmHg 28%
    14:00 +26°C° 0 mm 3 mps 625 mmHg 26%
    15:00 +25°C° 0 mm 3 mps 625 mmHg 30%
    16:00 +23°C° 0 mm 2 mps 625 mmHg 34%
    17:00 +21°C° 0 mm 2 mps 624 mmHg 38%
    18:00 +20°C° 0 mm 2 mps 624 mmHg 44%
    19:00 +20°C° 0 mm 1 mps 625 mmHg 50%
    20:00 +18°C° 0 mm 1 mps 625 mmHg 56%
    21:00 +18°C° 0 mm 1 mps 625 mmHg 60%
    22:00 +16°C° 0 mm 1 mps 625 mmHg 63%
    23:00 +16°C° 0 mm 1 mps 625 mmHg 67%

    17 December, Tuesday

    Time Temperature Precipitation Wind Pressure Humidity
    00:00 +15°C° 0 mm 1 mps 625 mmHg 67%
    01:00 +14°C° 0 mm 1 mps 625 mmHg 68%
    02:00 +14°C° 0 mm 1 mps 624 mmHg 69%
    03:00 +13°C° 0 mm 1 mps 624 mmHg 72%
    04:00 +13°C° 0 mm 1 mps 624 mmHg 75%
    05:00 +12°C° 0 mm 1 mps 624 mmHg 79%
    06:00 +13°C° 0 mm 1 mps 625 mmHg 79%
    07:00 +14°C° 0 mm 2 mps 626 mmHg 79%
    08:00 +15°C° 0 mm 2 mps 627 mmHg 79%
    09:00 +16°C° 0 mm 2 mps 627 mmHg 74%
    10:00 +17°C° 0 mm 2 mps 627 mmHg 69%
    11:00 +18°C° 0 mm 3 mps 627 mmHg 64%
    12:00 +18°C° 0 mm 3 mps 627 mmHg 66%
    13:00 +18°C° 0 mm 3 mps 626 mmHg 67%
    14:00 +18°C° 0 mm 4 mps 626 mmHg 68%
    15:00 +17°C° 0 mm 4 mps 626 mmHg 73%
    16:00 +14°C° 0 mm 3 mps 626 mmHg 78%
    17:00 +13°C° 0 mm 3 mps 625 mmHg 83%
    18:00 +12°C° 0 mm 3 mps 626 mmHg 82%
    19:00 +11°C° 0 mm 3 mps 626 mmHg 81%
    20:00 +11°C° 0 mm 3 mps 627 mmHg 81%
    21:00 +10°C° 0 mm 2 mps 627 mmHg 80%
    22:00 +10°C° 0 mm 2 mps 627 mmHg 80%
    23:00 +9°C° 0 mm 2 mps 627 mmHg 79%

    18 December, Wednesday

    Time Temperature Precipitation Wind Pressure Humidity
    00:00 +9°C° 0 mm 2 mps 627 mmHg 80%
    01:00 +8°C° 0 mm 2 mps 627 mmHg 81%
    02:00 +8°C° 0 mm 2 mps 627 mmHg 82%
    03:00 +8°C° 0 mm 2 mps 627 mmHg 83%
    04:00 +7°C° 0 mm 2 mps 627 mmHg 84%
    05:00 +7°C° 0 mm 2 mps 627 mmHg 86%
    06:00 +7°C° 0 mm 2 mps 627 mmHg 85%
    07:00 +7°C° 0 mm 2 mps 628 mmHg 85%
    08:00 +7°C° 0 mm 2 mps 628 mmHg 84%
    09:00 +8°C° 0 mm 2 mps 628 mmHg 79%
    10:00 +9°C° 0 mm 2 mps 628 mmHg 74%
    11:00 +10°C° 0 mm 3 mps 628 mmHg 69%
    12:00 +11°C° 0 mm 3 mps 628 mmHg 67%
    13:00 +12°C° 0 mm 3 mps 627 mmHg 64%
    14:00 +12°C° 0 mm 4 mps 627 mmHg 62%
    15:00 +11°C° 0 mm 3 mps 627 mmHg 65%
    16:00 +10°C° 0 mm 3 mps 626 mmHg 68%
    17:00 +9°C° 0 mm 3 mps 626 mmHg 71%
    18:00 +8°C° 0 mm 2 mps 626 mmHg 74%
    19:00 +8°C° 0 mm 2 mps 627 mmHg 77%
    20:00 +7°C° 0 mm 2 mps 627 mmHg 80%
    21:00 +8°C° 0 mm 1 mps 627 mmHg 80%
    22:00 +8°C° 0 mm 1 mps 627 mmHg 81%
    23:00 +8°C° 0 mm 1 mps 627 mmHg 82%

    19 December, Thursday

    Time Temperature Precipitation Wind Pressure Humidity
    00:00 +8°C° 0 mm 1 mps 626 mmHg 83%
    01:00 +8°C° 0 mm 1 mps 626 mmHg 84%
    02:00 +8°C° 0 mm 1 mps 626 mmHg 85%
    03:00 +8°C° 0 mm 1 mps 626 mmHg 86%
    04:00 +8°C° 0 mm 1 mps 626 mmHg 87%
    05:00 +8°C° 0 mm 1 mps 626 mmHg 88%
    06:00 +9°C° 0 mm 1 mps 626 mmHg 83%
    07:00 +11°C° 0 mm 1 mps 627 mmHg 78%
    08:00 +12°C° 0 mm 1 mps 627 mmHg 73%
    09:00 +14°C° 0 mm 1 mps 628 mmHg 66%
    10:00 +16°C° 0 mm 1 mps 628 mmHg 59%
    11:00 +20°C° 0 mm 1 mps 628 mmHg 53%
    12:00 +21°C° 0 mm 1 mps 628 mmHg 49%
    13:00 +21°C° 0 mm 2 mps 627 mmHg 45%
    14:00 +23°C° 0 mm 2 mps 627 mmHg 42%
    15:00 +20°C° 0 mm 2 mps 627 mmHg 48%
    16:00 +19°C° 0 mm 2 mps 626 mmHg 55%
    17:00 +18°C° 0 mm 2 mps 626 mmHg 61%
    18:00 +16°C° 0 mm 1 mps 626 mmHg 67%
    19:00 +15°C° 0 mm 1 mps 626 mmHg 72%
    20:00 +13°C° 0 mm 0 mps 626 mmHg 78%
    21:00 +13°C° 0 mm 0 mps 627 mmHg 79%
    22:00 +13°C° 0 mm 0 mps 627 mmHg 79%
    23:00 +13°C° 0 mm 0 mps 627 mmHg 80%
    Show more